| time (UTC) | temp F | wind direction | speed MPH | gust MPH | rain 1hr in | rain 24hr in | rain mn in | humidity % | barometer mb |
| 20260507070533 | 37 | 120 | 0.0 | 0.0 | 0.00 | 0.00 | 0.00 | 95 | 1018.6 |
| 20260507070030 | 37 | 120 | 0.0 | 0.0 | 0.00 | 0.00 | 0.00 | 95 | 1018.7 |
| 20260507065526 | 37 | 120 | 0.0 | 0.0 | 0.00 | 0.00 | 0.00 | 95 | 1018.6 |
| 20260507065023 | 37 | 120 | 0.0 | 0.0 | 0.00 | 0.00 | 0.00 | 95 | 1018.9 |
| 20260507064521 | 38 | 120 | 0.0 | 0.0 | 0.00 | 0.00 | 0.00 | 95 | 1019.0 |
| 20260507064019 | 37 | 120 | 0.0 | 0.0 | 0.00 | 0.00 | 0.00 | 95 | 1019.0 |
| 20260507063516 | 37 | 120 | 0.0 | 0.0 | 0.00 | 0.00 | 0.00 | 95 | 1018.9 |
| 20260507063013 | 37 | 120 | 0.0 | 0.0 | 0.00 | 0.00 | 0.00 | 94 | 1018.9 |
| 20260507062510 | 37 | 120 | 0.0 | 0.0 | 0.00 | 0.00 | 0.00 | 94 | 1019.0 |
| 20260507062008 | 38 | 120 | 0.0 | 0.0 | 0.00 | 0.00 | 0.00 | 94 | 1019.1 |
| 20260507061505 | 38 | 120 | 0.0 | 0.0 | 0.00 | 0.00 | 0.00 | 94 | 1019.0 |
| 20260507061003 | 38 | 120 | 0.0 | 0.0 | 0.00 | 0.00 | 0.00 | 94 | 1019.0 |
| 20260507060500 | 38 | 120 | 0.0 | 0.0 | 0.00 | 0.00 | 0.00 | 94 | 1019.2 |
| 20260507055956 | 38 | 120 | 0.0 | 0.0 | 0.00 | 0.00 | 0.00 | 94 | 1019.0 |
| 20260507055452 | 38 | 120 | 0.0 | 0.0 | 0.00 | 0.00 | 0.00 | 94 | 1019.1 |
| 20260507054949 | 38 | 120 | 0.0 | 0.0 | 0.00 | 0.00 | 0.00 | 94 | 1019.0 |
| 20260507054444 | 38 | 120 | 0.0 | 0.0 | 0.00 | 0.00 | 0.00 | 94 | 1018.7 |
| 20260507053942 | 38 | 120 | 0.0 | 0.0 | 0.00 | 0.00 | 0.00 | 94 | 1018.9 |
| 20260507053440 | 38 | 120 | 0.0 | 0.0 | 0.00 | 0.00 | 0.00 | 94 | 1018.9 |
| 20260507052938 | 39 | 120 | 0.0 | 0.0 | 0.00 | 0.00 | 0.00 | 94 | 1018.9 |
| 20260507052435 | 39 | 120 | 0.0 | 0.0 | 0.00 | 0.00 | 0.00 | 94 | 1018.9 |
| 20260507051932 | 39 | 120 | 0.0 | 0.0 | 0.00 | 0.00 | 0.00 | 94 | 1018.7 |
| 20260507051430 | 39 | 120 | 0.0 | 0.0 | 0.00 | 0.00 | 0.00 | 93 | 1019.0 |
| 20260507050927 | 39 | 120 | 0.0 | 0.0 | 0.00 | 0.00 | 0.00 | 93 | 1019.0 |
| 20260507050423 | 39 | 120 | 0.0 | 0.0 | 0.00 | 0.00 | 0.00 | 93 | 1019.1 |
| 20260507045920 | 39 | 120 | 0.0 | 0.0 | 0.00 | 0.00 | 0.00 | 93 | 1019.1 |
| 20260507045416 | 39 | 120 | 0.0 | 0.0 | 0.00 | 0.00 | 0.00 | 93 | 1019.1 |
| 20260507044914 | 39 | 120 | 0.0 | 0.0 | 0.00 | 0.00 | 0.00 | 93 | 1018.9 |
| 20260507044410 | 39 | 120 | 0.0 | 0.0 | 0.00 | 0.00 | 0.00 | 93 | 1019.0 |
| 20260507043906 | 39 | 120 | 0.0 | 0.0 | 0.00 | 0.00 | 0.00 | 93 | 1018.7 |
| 20260507043403 | 40 | 120 | 0.0 | 0.0 | 0.00 | 0.00 | 0.00 | 93 | 1019.2 |
| 20260507042859 | 40 | 120 | 0.0 | 0.0 | 0.00 | 0.00 | 0.00 | 92 | 1018.9 |
| 20260507042356 | 40 | 120 | 0.0 | 0.0 | 0.00 | 0.00 | 0.00 | 92 | 1019.0 |
| 20260507041851 | 40 | 120 | 0.0 | 0.0 | 0.00 | 0.00 | 0.00 | 92 | 1018.9 |
| 20260507041348 | 40 | 120 | 0.0 | 0.0 | 0.00 | 0.00 | 0.00 | 92 | 1018.7 |
| 20260507040846 | 40 | 120 | 0.0 | 0.0 | 0.00 | 0.00 | 0.00 | 91 | 1018.7 |
| 20260507040342 | 40 | 120 | 0.0 | 0.0 | 0.00 | 0.00 | 0.00 | 91 | 1018.6 |
| 20260507035838 | 40 | 120 | 0.0 | 0.0 | 0.00 | 0.00 | 0.00 | 91 | 1018.5 |
| 20260507035333 | 40 | 120 | 0.0 | 0.0 | 0.00 | 0.00 | 0.00 | 91 | 1018.5 |
| 20260507034831 | 40 | 120 | 0.0 | 0.0 | 0.00 | 0.00 | 0.00 | 91 | 1018.5 |
| 20260507034328 | 41 | 120 | 0.0 | 0.0 | 0.00 | 0.00 | 0.00 | 91 | 1018.6 |
| 20260507033826 | 41 | 119 | 0.0 | 0.0 | 0.00 | 0.00 | 0.00 | 90 | 1018.4 |
| 20260507033324 | 41 | 119 | 0.0 | 0.0 | 0.00 | 0.00 | 0.00 | 90 | 1018.5 |
| 20260507032820 | 41 | 119 | 0.0 | 0.0 | 0.00 | 0.00 | 0.00 | 90 | 1018.5 |
| 20260507032317 | 41 | 119 | 0.0 | 0.0 | 0.00 | 0.00 | 0.00 | 89 | 1018.5 |
| 20260507031813 | 42 | 119 | 0.0 | 0.0 | 0.00 | 0.00 | 0.00 | 89 | 1018.6 |
| 20260507031310 | 42 | 119 | 0.0 | 0.0 | 0.00 | 0.00 | 0.00 | 89 | 1018.3 |
| 20260507030806 | 42 | 119 | 0.0 | 0.0 | 0.00 | 0.00 | 0.00 | 88 | 1018.5 |
| 20260507030305 | 42 | 119 | 0.0 | 0.0 | 0.00 | 0.00 | 0.00 | 88 | 1018.2 |
| 20260507025801 | 42 | 119 | 0.0 | 0.0 | 0.00 | 0.00 | 0.00 | 88 | 1018.4 |
| 20260507025258 | 43 | 119 | 0.0 | 0.0 | 0.00 | 0.00 | 0.00 | 87 | 1018.4 |
| 20260507024756 | 43 | 119 | 0.0 | 0.0 | 0.00 | 0.00 | 0.00 | 87 | 1018.3 |
| 20260507024253 | 43 | 119 | 0.0 | 0.0 | 0.00 | 0.00 | 0.00 | 86 | 1018.2 |
| 20260507023749 | 43 | 119 | 0.0 | 0.0 | 0.00 | 0.00 | 0.00 | 86 | 1018.3 |
| 20260507023246 | 44 | 119 | 0.0 | 0.0 | 0.00 | 0.00 | 0.00 | 85 | 1018.1 |
| 20260507022743 | 44 | 119 | 0.0 | 0.0 | 0.00 | 0.00 | 0.00 | 84 | 1018.3 |
| 20260507022239 | 44 | 119 | 0.0 | 0.0 | 0.00 | 0.00 | 0.00 | 83 | 1018.1 |
| 20260507021736 | 45 | 119 | 0.0 | 0.0 | 0.00 | 0.00 | 0.00 | 82 | 1018.1 |
| 20260507021231 | 45 | 119 | 0.0 | 0.0 | 0.00 | 0.00 | 0.00 | 81 | 1017.9 |
| 20260507020730 | 46 | 119 | 0.0 | 0.0 | 0.00 | 0.00 | 0.00 | 80 | 1017.9 |
| 20260507020226 | 46 | 119 | 0.0 | 0.0 | 0.00 | 0.00 | 0.00 | 79 | 1018.0 |
| 20260507015723 | 47 | 118 | 0.0 | 0.0 | 0.00 | 0.00 | 0.00 | 77 | 1017.7 |
| 20260507015221 | 47 | 118 | 0.0 | 0.0 | 0.00 | 0.00 | 0.00 | 76 | 1017.7 |
| 20260507014717 | 48 | 118 | 0.0 | 0.0 | 0.00 | 0.00 | 0.00 | 74 | 1017.6 |
| 20260507014213 | 49 | 119 | 0.0 | 0.0 | 0.00 | 0.00 | 0.00 | 71 | 1017.7 |
| 20260507013710 | 50 | 119 | 0.0 | 0.0 | 0.00 | 0.00 | 0.00 | 70 | 1017.5 |
| 20260507013208 | 51 | 119 | 0.0 | 0.0 | 0.00 | 0.00 | 0.00 | 68 | 1017.6 |
| 20260507012705 | 52 | 118 | 0.0 | 0.0 | 0.00 | 0.00 | 0.00 | 65 | 1017.5 |
| 20260507012200 | 53 | 118 | 0.0 | 0.0 | 0.00 | 0.00 | 0.00 | 63 | 1017.6 |
| 20260507011658 | 54 | 119 | 0.0 | 0.0 | 0.00 | 0.00 | 0.00 | 58 | 1017.4 |
| 20260507011154 | 55 | 119 | 0.0 | 0.0 | 0.00 | 0.00 | 0.00 | 55 | 1017.3 |
| 20260507010649 | 56 | 119 | 0.0 | 1.0 | 0.00 | 0.00 | 0.00 | 52 | 1017.5 |
| 20260507010145 | 56 | 74 | 1.0 | 1.0 | 0.00 | 0.00 | 0.00 | 51 | 1017.2 |
| 20260507005643 | 57 | 122 | 1.0 | 2.0 | 0.00 | 0.00 | 0.00 | 50 | 1017.2 |
| 20260507005139 | 57 | 71 | 2.0 | 2.0 | 0.00 | 0.00 | 0.00 | 49 | 1017.2 |
| 20260507004636 | 57 | 74 | 3.0 | 6.0 | 0.00 | 0.00 | 0.00 | 48 | 1017.3 |
| 20260507004133 | 57 | 74 | 2.0 | 6.0 | 0.00 | 0.00 | 0.00 | 48 | 1017.2 |
| 20260507003630 | 58 | 22 | 2.0 | 6.0 | 0.00 | 0.00 | 0.00 | 48 | 1017.3 |
| 20260507003130 | 58 | 31 | 3.0 | 4.0 | 0.00 | 0.00 | 0.00 | 50 | 1017.0 |
| 20260507002626 | 58 | 46 | 1.0 | 4.0 | 0.00 | 0.00 | 0.00 | 49 | 1017.3 |
| 20260507002122 | 59 | 47 | 2.0 | 3.0 | 0.00 | 0.00 | 0.00 | 48 | 1017.0 |
| 20260507001619 | 59 | 82 | 1.0 | 3.0 | 0.00 | 0.00 | 0.00 | 48 | 1017.0 |
| 20260507001117 | 59 | 27 | 2.0 | 6.0 | 0.00 | 0.00 | 0.00 | 47 | 1017.0 |
| 20260507000613 | 60 | 82 | 4.0 | 9.0 | 0.00 | 0.00 | 0.00 | 46 | 1017.0 |
| 20260507000108 | 60 | 66 | 2.0 | 4.0 | 0.00 | 0.00 | 0.00 | 47 | 1016.8 |
| 20260506235606 | 61 | 35 | 6.0 | 8.0 | 0.00 | 0.00 | 0.00 | 44 | 1016.8 |
| 20260506235106 | 60 | 42 | 3.0 | 6.0 | 0.00 | 0.00 | 0.00 | 46 | 1016.6 |
| 20260506234604 | 60 | 2 | 5.0 | 7.0 | 0.00 | 0.00 | 0.00 | 47 | 1016.5 |
| 20260506234101 | 60 | 11 | 4.0 | 8.0 | 0.00 | 0.00 | 0.00 | 48 | 1016.5 |
| 20260506233557 | 61 | 44 | 5.0 | 6.0 | 0.00 | 0.00 | 0.00 | 46 | 1016.2 |
| 20260506233054 | 61 | 42 | 5.0 | 9.0 | 0.00 | 0.00 | 0.00 | 44 | 1016.2 |
| 20260506232550 | 61 | 36 | 7.0 | 10.0 | 0.00 | 0.00 | 0.00 | 46 | 1016.3 |
| 20260506232046 | 61 | 60 | 3.0 | 7.0 | 0.00 | 0.00 | 0.00 | 45 | 1016.0 |
| 20260506231544 | 62 | 40 | 6.0 | 9.0 | 0.00 | 0.00 | 0.00 | 44 | 1016.1 |
| 20260506231041 | 62 | 69 | 4.0 | 7.0 | 0.00 | 0.00 | 0.00 | 44 | 1016.3 |
| 20260506230538 | 62 | 69 | 5.0 | 10.0 | 0.00 | 0.00 | 0.00 | 45 | 1016.2 |
| 20260506230035 | 62 | 33 | 2.0 | 7.0 | 0.00 | 0.00 | 0.00 | 45 | 1016.2 |
| 20260506225532 | 62 | 57 | 5.0 | 11.0 | 0.00 | 0.00 | 0.00 | 43 | 1016.2 |
| 20260506225028 | 62 | 85 | 3.0 | 4.0 | 0.00 | 0.00 | 0.00 | 44 | 1016.0 |
| 20260506224525 | 62 | 20 | 9.0 | 10.0 | 0.00 | 0.00 | 0.00 | 41 | 1016.1 |
| 20260506224022 | 62 | 40 | 5.0 | 8.0 | 0.00 | 0.00 | 0.00 | 41 | 1016.2 |
| 20260506223517 | 62 | 81 | 3.0 | 9.0 | 0.00 | 0.00 | 0.00 | 43 | 1016.2 |
| 20260506223014 | 62 | 61 | 4.0 | 9.0 | 0.00 | 0.00 | 0.00 | 42 | 1016.2 |
| 20260506222511 | 62 | 76 | 3.0 | 10.0 | 0.00 | 0.00 | 0.00 | 44 | 1016.2 |
| 20260506222007 | 62 | 123 | 0.0 | 6.0 | 0.00 | 0.00 | 0.00 | 47 | 1016.2 |
| 20260506221505 | 62 | 42 | 3.0 | 10.0 | 0.00 | 0.00 | 0.00 | 46 | 1016.0 |
| 20260506221003 | 62 | 78 | 6.0 | 10.0 | 0.00 | 0.00 | 0.00 | 43 | 1016.0 |
| 20260506220503 | 62 | 81 | 6.0 | 8.0 | 0.00 | 0.00 | 0.00 | 44 | 1016.1 |
| 20260506220000 | 62 | 80 | 4.0 | 4.0 | 0.00 | 0.00 | 0.00 | 45 | 1016.0 |
| 20260506215456 | 62 | 41 | 3.0 | 6.0 | 0.00 | 0.00 | 0.00 | 43 | 1016.2 |
| 20260506214952 | 63 | 66 | 3.0 | 7.0 | 0.00 | 0.00 | 0.00 | 43 | 1016.3 |
| 20260506214449 | 63 | 105 | 3.0 | 8.0 | 0.00 | 0.00 | 0.00 | 44 | 1016.3 |
| 20260506213947 | 63 | 54 | 4.0 | 13.0 | 0.00 | 0.00 | 0.00 | 45 | 1016.2 |
| 20260506213444 | 64 | 49 | 5.0 | 11.0 | 0.00 | 0.00 | 0.00 | 42 | 1016.2 |
| 20260506212941 | 64 | 21 | 4.0 | 7.0 | 0.00 | 0.00 | 0.00 | 44 | 1016.1 |
| 20260506212437 | 64 | 30 | 3.0 | 10.0 | 0.00 | 0.00 | 0.00 | 45 | 1016.2 |
| 20260506211937 | 64 | 2 | 5.0 | 7.0 | 0.00 | 0.00 | 0.00 | 45 | 1016.1 |
| 20260506211434 | 63 | 20 | 5.0 | 9.0 | 0.00 | 0.00 | 0.00 | 43 | 1016.2 |
| 20260506210931 | 63 | 147 | 3.0 | 8.0 | 0.00 | 0.00 | 0.00 | 46 | 1016.4 |
| 20260506210427 | 63 | 32 | 5.0 | 9.0 | 0.00 | 0.00 | 0.00 | 44 | 1016.4 |
| 20260506205925 | 63 | 68 | 4.0 | 7.0 | 0.00 | 0.00 | 0.00 | 44 | 1016.4 |
| 20260506205421 | 63 | 98 | 4.0 | 13.0 | 0.00 | 0.00 | 0.00 | 45 | 1016.2 |
| 20260506204917 | 62 | 317 | 2.0 | 7.0 | 0.00 | 0.00 | 0.00 | 45 | 1016.5 |
| 20260506204415 | 62 | 13 | 3.0 | 8.0 | 0.00 | 0.00 | 0.00 | 46 | 1016.5 |
| 20260506203912 | 62 | 109 | 7.0 | 8.0 | 0.00 | 0.00 | 0.00 | 43 | 1016.6 |
| 20260506203409 | 61 | 65 | 4.0 | 6.0 | 0.00 | 0.00 | 0.00 | 46 | 1016.7 |
| 20260506202906 | 63 | 42 | 6.0 | 9.0 | 0.00 | 0.00 | 0.00 | 44 | 1016.9 |
| 20260506202404 | 63 | 100 | 3.0 | 8.0 | 0.00 | 0.00 | 0.00 | 46 | 1016.8 |
| 20260506201900 | 64 | 62 | 4.0 | 9.0 | 0.00 | 0.00 | 0.00 | 46 | 1016.8 |
| 20260506201357 | 63 | 35 | 3.0 | 4.0 | 0.00 | 0.00 | 0.00 | 43 | 1016.9 |
| 20260506200854 | 63 | 108 | 4.0 | 9.0 | 0.00 | 0.00 | 0.00 | 43 | 1016.9 |
| 20260506200350 | 63 | 156 | 4.0 | 7.0 | 0.00 | 0.00 | 0.00 | 46 | 1016.8 |
| 20260506195846 | 63 | 64 | 9.0 | 14.0 | 0.00 | 0.00 | 0.00 | 43 | 1016.8 |
| 20260506195344 | 63 | 24 | 7.0 | 8.0 | 0.00 | 0.00 | 0.00 | 43 | 1016.9 |
| 20260506194840 | 63 | 71 | 4.0 | 6.0 | 0.00 | 0.00 | 0.00 | 43 | 1016.8 |
| 20260506194337 | 63 | 82 | 5.0 | 10.0 | 0.00 | 0.00 | 0.00 | 45 | 1017.2 |
| 20260506193834 | 63 | 54 | 1.0 | 7.0 | 0.00 | 0.00 | 0.00 | 47 | 1017.0 |
| 20260506193331 | 62 | 18 | 5.0 | 8.0 | 0.00 | 0.00 | 0.00 | 43 | 1017.2 |
| 20260506192827 | 62 | 53 | 6.0 | 8.0 | 0.00 | 0.00 | 0.00 | 48 | 1017.3 |
| 20260506192324 | 62 | 32 | 7.0 | 10.0 | 0.00 | 0.00 | 0.00 | 43 | 1017.3 |
| 20260506191821 | 62 | 54 | 3.0 | 7.0 | 0.00 | 0.00 | 0.00 | 47 | 1017.4 |
| 20260506191318 | 62 | 87 | 2.0 | 4.0 | 0.00 | 0.00 | 0.00 | 47 | 1017.5 |
| 20260506190815 | 62 | 63 | 4.0 | 7.0 | 0.00 | 0.00 | 0.00 | 46 | 1017.7 |
| 20260506190311 | 62 | 68 | 5.0 | 7.0 | 0.00 | 0.00 | 0.00 | 48 | 1017.3 |
| 20260506185808 | 62 | 80 | 4.0 | 7.0 | 0.00 | 0.00 | 0.00 | 44 | 1017.5 |
| 20260506185307 | 62 | 127 | 6.0 | 10.0 | 0.00 | 0.00 | 0.00 | 44 | 1017.7 |
| 20260506184802 | 62 | 87 | 2.0 | 7.0 | 0.00 | 0.00 | 0.00 | 47 | 1017.5 |
| 20260506184259 | 62 | 53 | 8.0 | 9.0 | 0.00 | 0.00 | 0.00 | 45 | 1017.8 |
| 20260506183756 | 62 | 62 | 5.0 | 7.0 | 0.00 | 0.00 | 0.00 | 45 | 1017.9 |
| 20260506183257 | 61 | 48 | 2.0 | 7.0 | 0.00 | 0.00 | 0.00 | 47 | 1017.7 |
| 20260506182754 | 62 | 69 | 5.0 | 9.0 | 0.00 | 0.00 | 0.00 | 48 | 1017.8 |
| 20260506182251 | 62 | 356 | 2.0 | 9.0 | 0.00 | 0.00 | 0.00 | 45 | 1018.0 |
| 20260506181749 | 62 | 132 | 2.0 | 8.0 | 0.00 | 0.00 | 0.00 | 48 | 1018.1 |
| 20260506181246 | 61 | 100 | 2.0 | 3.0 | 0.00 | 0.00 | 0.00 | 49 | 1018.3 |
| 20260506180743 | 61 | 88 | 6.0 | 11.0 | 0.00 | 0.00 | 0.00 | 48 | 1018.4 |
| 20260506180239 | 62 | 11 | 5.0 | 9.0 | 0.00 | 0.00 | 0.00 | 45 | 1018.6 |
| 20260506175735 | 61 | 81 | 5.0 | 6.0 | 0.00 | 0.00 | 0.00 | 48 | 1018.7 |
| 20260506175233 | 60 | 89 | 2.0 | 9.0 | 0.00 | 0.00 | 0.00 | 47 | 1018.9 |
| 20260506174730 | 59 | 88 | 5.0 | 8.0 | 0.00 | 0.00 | 0.00 | 49 | 1018.9 |
| 20260506174227 | 59 | 105 | 1.0 | 8.0 | 0.00 | 0.00 | 0.00 | 49 | 1018.9 |
| 20260506173725 | 59 | 102 | 4.0 | 4.0 | 0.00 | 0.00 | 0.00 | 51 | 1019.0 |
| 20260506173221 | 58 | 106 | 5.0 | 6.0 | 0.00 | 0.00 | 0.00 | 50 | 1018.7 |
| 20260506172718 | 58 | 1 | 5.0 | 8.0 | 0.00 | 0.00 | 0.00 | 51 | 1018.9 |
| 20260506172215 | 58 | 75 | 1.0 | 6.0 | 0.00 | 0.00 | 0.00 | 52 | 1018.9 |
| 20260506171712 | 58 | 29 | 6.0 | 10.0 | 0.00 | 0.00 | 0.00 | 49 | 1018.9 |
| 20260506171210 | 58 | 17 | 4.0 | 10.0 | 0.00 | 0.00 | 0.00 | 51 | 1018.5 |
| 20260506170707 | 59 | 36 | 4.0 | 6.0 | 0.00 | 0.00 | 0.00 | 53 | 1018.9 |
| 20260506170204 | 58 | 71 | 2.0 | 7.0 | 0.00 | 0.00 | 0.00 | 58 | 1019.0 |
| 20260506165702 | 58 | 76 | 3.0 | 7.0 | 0.00 | 0.00 | 0.00 | 53 | 1019.2 |
| 20260506165158 | 58 | 67 | 6.0 | 9.0 | 0.00 | 0.00 | 0.00 | 54 | 1019.2 |
| 20260506164655 | 58 | 1 | 4.0 | 9.0 | 0.00 | 0.00 | 0.00 | 52 | 1018.7 |
| 20260506164153 | 57 | 89 | 5.0 | 8.0 | 0.00 | 0.00 | 0.00 | 55 | 1018.7 |
| 20260506163649 | 57 | 38 | 7.0 | 10.0 | 0.00 | 0.00 | 0.00 | 53 | 1018.6 |
| 20260506163144 | 58 | 83 | 4.0 | 9.0 | 0.00 | 0.00 | 0.00 | 54 | 1018.3 |
| 20260506162641 | 58 | 9 | 7.0 | 10.0 | 0.00 | 0.00 | 0.00 | 53 | 1018.1 |
| 20260506162138 | 58 | 23 | 8.0 | 10.0 | 0.00 | 0.00 | 0.00 | 53 | 1018.0 |
| 20260506161635 | 57 | 128 | 4.0 | 6.0 | 0.00 | 0.00 | 0.00 | 58 | 1017.7 |
| 20260506161132 | 57 | 59 | 3.0 | 6.0 | 0.00 | 0.00 | 0.00 | 55 | 1017.6 |
| 20260506160630 | 57 | 41 | 5.0 | 6.0 | 0.00 | 0.00 | 0.00 | 59 | 1017.7 |
| 20260506160126 | 58 | 77 | 4.0 | 9.0 | 0.00 | 0.00 | 0.00 | 52 | 1017.4 |
| 20260506155625 | 59 | 126 | 2.0 | 3.0 | 0.00 | 0.00 | 0.00 | 60 | 1017.6 |
| 20260506155122 | 59 | 90 | 5.0 | 8.0 | 0.00 | 0.00 | 0.00 | 58 | 1017.4 |
| 20260506153218 | 58 | 56 | 1.0 | 2.0 | 0.00 | 0.00 | 0.00 | 62 | 1017.6 |
| 20260506152715 | 56 | 55 | 1.0 | 4.0 | 0.00 | 0.00 | 0.00 | 66 | 1017.6 |
| 20260506152212 | 57 | 12 | 8.0 | 10.0 | 0.00 | 0.00 | 0.00 | 62 | 1017.5 |
| 20260506151712 | 57 | 139 | 2.0 | 6.0 | 0.00 | 0.00 | 0.00 | 65 | 1017.6 |
| 20260506151208 | 56 | 114 | 1.0 | 6.0 | 0.00 | 0.00 | 0.00 | 67 | 1017.6 |
| 20260506150704 | 55 | 99 | 3.0 | 4.0 | 0.00 | 0.00 | 0.00 | 70 | 1017.4 |
| 20260506150201 | 54 | 86 | 2.0 | 4.0 | 0.00 | 0.00 | 0.00 | 70 | 1017.5 |
| 20260506145658 | 54 | 75 | 4.0 | 6.0 | 0.00 | 0.00 | 0.00 | 72 | 1017.6 |
| 20260506145155 | 53 | 127 | 4.0 | 6.0 | 0.00 | 0.00 | 0.00 | 73 | 1017.5 |
| 20260506144653 | 51 | 49 | 2.0 | 7.0 | 0.00 | 0.00 | 0.00 | 73 | 1017.4 |
| 20260506144149 | 50 | 102 | 1.0 | 4.0 | 0.00 | 0.00 | 0.00 | 75 | 1017.4 |
| 20260506143647 | 50 | 97 | 2.0 | 6.0 | 0.00 | 0.00 | 0.00 | 75 | 1017.3 |
| 20260506143144 | 50 | 88 | 4.0 | 7.0 | 0.00 | 0.00 | 0.00 | 75 | 1017.2 |
| 20260506142643 | 50 | 91 | 2.0 | 8.0 | 0.00 | 0.00 | 0.00 | 75 | 1017.1 |
| 20260506142140 | 49 | 52 | 3.0 | 4.0 | 0.00 | 0.00 | 0.00 | 77 | 1017.1 |
| 20260506141638 | 49 | 98 | 3.0 | 4.0 | 0.00 | 0.00 | 0.00 | 77 | 1017.3 |
| 20260506141136 | 49 | 63 | 3.0 | 7.0 | 0.00 | 0.00 | 0.00 | 77 | 1017.2 |
| 20260506140633 | 49 | 101 | 3.0 | 7.0 | 0.00 | 0.00 | 0.00 | 77 | 1017.5 |
| 20260506140130 | 48 | 73 | 2.0 | 3.0 | 0.00 | 0.00 | 0.00 | 79 | 1017.7 |
| 20260506135627 | 48 | 104 | 2.0 | 7.0 | 0.00 | 0.00 | 0.00 | 79 | 1017.5 |
| 20260506135123 | 48 | 128 | 0.0 | 3.0 | 0.00 | 0.00 | 0.00 | 80 | 1017.6 |
| 20260506134620 | 48 | 74 | 2.0 | 6.0 | 0.00 | 0.00 | 0.00 | 78 | 1017.7 |
| 20260506134115 | 48 | 56 | 3.0 | 8.0 | 0.00 | 0.00 | 0.00 | 78 | 1017.7 |
| 20260506133613 | 48 | 76 | 2.0 | 6.0 | 0.00 | 0.00 | 0.00 | 79 | 1017.6 |
| 20260506133110 | 48 | 79 | 2.0 | 7.0 | 0.00 | 0.00 | 0.00 | 80 | 1017.5 |
| 20260506132608 | 48 | 57 | 2.0 | 4.0 | 0.00 | 0.00 | 0.00 | 81 | 1017.5 |
| 20260506132104 | 47 | 84 | 6.0 | 7.0 | 0.00 | 0.00 | 0.00 | 81 | 1017.2 |
| 20260506131602 | 47 | 92 | 3.0 | 7.0 | 0.00 | 0.00 | 0.00 | 81 | 1017.4 |
| 20260506131058 | 47 | 95 | 4.0 | 7.0 | 0.00 | 0.00 | 0.00 | 81 | 1017.6 |
| 20260506130555 | 47 | 73 | 2.0 | 7.0 | 0.00 | 0.00 | 0.00 | 82 | 1017.3 |
| 20260506130053 | 47 | 79 | 3.0 | 6.0 | 0.00 | 0.00 | 0.00 | 83 | 1017.1 |
| 20260506125551 | 47 | 15 | 5.0 | 8.0 | 0.00 | 0.00 | 0.00 | 83 | 1017.5 |
| 20260506125048 | 47 | 97 | 3.0 | 9.0 | 0.00 | 0.00 | 0.00 | 83 | 1017.4 |
| 20260506124546 | 46 | 42 | 3.0 | 4.0 | 0.00 | 0.00 | 0.00 | 84 | 1017.1 |
| 20260506124043 | 46 | 153 | 1.0 | 9.0 | 0.00 | 0.00 | 0.00 | 85 | 1017.1 |
| 20260506123541 | 46 | 80 | 2.0 | 3.0 | 0.00 | 0.00 | 0.00 | 86 | 1017.2 |
| 20260506123039 | 46 | 145 | 4.0 | 7.0 | 0.00 | 0.00 | 0.00 | 87 | 1017.2 |
| 20260506122535 | 46 | 97 | 3.0 | 7.0 | 0.00 | 0.00 | 0.00 | 88 | 1017.2 |
| 20260506122034 | 46 | 62 | 1.0 | 3.0 | 0.00 | 0.00 | 0.00 | 89 | 1017.5 |
| 20260506121531 | 46 | 75 | 3.0 | 7.0 | 0.00 | 0.00 | 0.00 | 89 | 1017.5 |
| 20260506121027 | 46 | 48 | 2.0 | 6.0 | 0.00 | 0.00 | 0.00 | 89 | 1017.4 |
| 20260506120525 | 46 | 73 | 3.0 | 6.0 | 0.00 | 0.00 | 0.00 | 90 | 1017.7 |
| 20260506120022 | 46 | 76 | 2.0 | 6.0 | 0.00 | 0.00 | 0.00 | 91 | 1017.5 |
| 20260506115520 | 46 | 46 | 2.0 | 3.0 | 0.00 | 0.00 | 0.00 | 91 | 1017.4 |
| 20260506115018 | 46 | 43 | 4.0 | 6.0 | 0.00 | 0.00 | 0.00 | 91 | 1017.4 |
| 20260506114515 | 46 | 4 | 3.0 | 6.0 | 0.00 | 0.00 | 0.00 | 91 | 1017.3 |
| 20260506114014 | 46 | 66 | 2.0 | 3.0 | 0.00 | 0.00 | 0.00 | 91 | 1017.4 |
| 20260506113511 | 46 | 8 | 1.0 | 4.0 | 0.00 | 0.00 | 0.00 | 91 | 1017.0 |
| 20260506113008 | 46 | 1 | 3.0 | 7.0 | 0.00 | 0.00 | 0.00 | 91 | 1016.9 |
| 20260506112505 | 46 | 11 | 4.0 | 7.0 | 0.00 | 0.00 | 0.00 | 91 | 1016.5 |
| 20260506112002 | 46 | 73 | 2.0 | 3.0 | 0.00 | 0.00 | 0.00 | 91 | 1016.7 |
| 20260506111500 | 46 | 68 | 3.0 | 4.0 | 0.00 | 0.00 | 0.00 | 91 | 1016.9 |
| 20260506110956 | 46 | 26 | 4.0 | 6.0 | 0.00 | 0.00 | 0.00 | 91 | 1016.8 |
| 20260506110455 | 46 | 105 | 1.0 | 7.0 | 0.00 | 0.00 | 0.00 | 91 | 1016.8 |
| 20260506105951 | 46 | 346 | 6.0 | 10.0 | 0.00 | 0.00 | 0.00 | 92 | 1016.8 |
| 20260506105447 | 46 | 354 | 2.0 | 6.0 | 0.00 | 0.00 | 0.00 | 92 | 1016.8 |
| 20260506104945 | 45 | 341 | 4.0 | 6.0 | 0.00 | 0.00 | 0.00 | 92 | 1016.3 |
| 20260506104443 | 45 | 45 | 1.0 | 6.0 | 0.00 | 0.00 | 0.00 | 92 | 1016.3 |
| 20260506103941 | 45 | 348 | 3.0 | 4.0 | 0.00 | 0.00 | 0.00 | 92 | 1015.8 |
| 20260506103438 | 45 | 26 | 2.0 | 3.0 | 0.00 | 0.00 | 0.00 | 92 | 1016.1 |
| 20260506102934 | 45 | 46 | 3.0 | 3.0 | 0.00 | 0.00 | 0.00 | 92 | 1015.9 |
| 20260506102433 | 45 | 28 | 2.0 | 2.0 | 0.00 | 0.00 | 0.00 | 92 | 1015.8 |
| 20260506101930 | 45 | 30 | 2.0 | 4.0 | 0.00 | 0.00 | 0.00 | 92 | 1015.9 |
| 20260506101426 | 45 | 84 | 2.0 | 3.0 | 0.00 | 0.00 | 0.00 | 92 | 1015.6 |
| 20260506100923 | 45 | 35 | 2.0 | 3.0 | 0.00 | 0.00 | 0.00 | 92 | 1015.5 |
| 20260506100422 | 45 | 48 | 2.0 | 2.0 | 0.00 | 0.00 | 0.00 | 92 | 1015.4 |
| 20260506095919 | 45 | 38 | 2.0 | 4.0 | 0.00 | 0.00 | 0.00 | 91 | 1015.4 |
| 20260506095418 | 45 | 11 | 4.0 | 4.0 | 0.00 | 0.00 | 0.00 | 91 | 1015.2 |
| 20260506094913 | 45 | 1 | 4.0 | 4.0 | 0.00 | 0.00 | 0.00 | 91 | 1015.1 |
| 20260506094412 | 45 | 82 | 1.0 | 3.0 | 0.00 | 0.00 | 0.00 | 91 | 1014.9 |
| 20260506093909 | 45 | 56 | 1.0 | 3.0 | 0.00 | 0.00 | 0.00 | 91 | 1014.9 |
| 20260506093407 | 46 | 79 | 1.0 | 3.0 | 0.00 | 0.00 | 0.00 | 91 | 1015.1 |
| 20260506092905 | 46 | 79 | 1.0 | 6.0 | 0.00 | 0.00 | 0.00 | 91 | 1015.0 |
| 20260506092403 | 46 | 33 | 1.0 | 2.0 | 0.00 | 0.00 | 0.00 | 91 | 1015.1 |
| 20260506091859 | 46 | 95 | 1.0 | 3.0 | 0.00 | 0.00 | 0.00 | 91 | 1014.9 |
| 20260506091357 | 46 | 336 | 2.0 | 2.0 | 0.00 | 0.00 | 0.00 | 90 | 1015.0 |
| 20260506090854 | 46 | 55 | 4.0 | 4.0 | 0.00 | 0.00 | 0.00 | 90 | 1014.9 |
| 20260506090352 | 46 | 93 | 0.0 | 2.0 | 0.00 | 0.00 | 0.00 | 90 | 1014.8 |
| 20260506085848 | 46 | 28 | 1.0 | 2.0 | 0.00 | 0.00 | 0.00 | 89 | 1014.7 |
| 20260506085344 | 46 | 47 | 2.0 | 3.0 | 0.00 | 0.00 | 0.00 | 89 | 1014.3 |
| 20260506084841 | 46 | 72 | 4.0 | 4.0 | 0.00 | 0.00 | 0.00 | 89 | 1014.1 |
| 20260506084338 | 46 | 120 | 1.0 | 1.0 | 0.00 | 0.00 | 0.00 | 89 | 1013.8 |
| 20260506083834 | 46 | 65 | 1.0 | 3.0 | 0.00 | 0.00 | 0.00 | 89 | 1014.0 |
| 20260506083332 | 46 | 65 | 2.0 | 2.0 | 0.00 | 0.00 | 0.00 | 89 | 1013.5 |
| 20260506082829 | 46 | 56 | 4.0 | 4.0 | 0.00 | 0.00 | 0.00 | 88 | 1013.7 |
| 20260506082325 | 46 | 65 | 2.0 | 2.0 | 0.00 | 0.00 | 0.00 | 88 | 1013.8 |
| 20260506081822 | 46 | 58 | 2.0 | 3.0 | 0.00 | 0.00 | 0.00 | 88 | 1013.9 |
| 20260506081320 | 46 | 81 | 2.0 | 2.0 | 0.00 | 0.00 | 0.00 | 88 | 1013.8 |
| 20260506080817 | 46 | 117 | 1.0 | 2.0 | 0.00 | 0.00 | 0.00 | 87 | 1013.2 |
| 20260506080313 | 46 | 72 | 3.0 | 4.0 | 0.00 | 0.00 | 0.00 | 87 | 1014.0 |
| 20260506073258 | 45 | 25 | 1.0 | 1.0 | 0.00 | 0.00 | 0.00 | 89 | 1013.3 |
| 20260506072754 | 45 | 107 | 1.0 | 2.0 | 0.00 | 0.00 | 0.00 | 89 | 1013.0 |
| 20260506072252 | 45 | 113 | 1.0 | 3.0 | 0.00 | 0.00 | 0.00 | 89 | 1013.1 |
| 20260506071749 | 45 | 64 | 2.0 | 6.0 | 0.00 | 0.00 | 0.00 | 89 | 1013.0 |
| 20260506071247 | 45 | 63 | 3.0 | 9.0 | 0.00 | 0.00 | 0.00 | 89 | 1012.9 |
| 20260506070744 | 45 | 75 | 4.0 | 7.0 | 0.00 | 0.00 | 0.00 | 89 | 1012.9 |